Voltar ao catálogo

SL-14 DEB

AtivoPO
NORAD 29065·DEBRIS·🇷🇺 Russia

Lançado Oct 26, 1978 de Plesetsk Cosmodrome

Loading…

Próximas Passagens (próximas 24 horas)

TLE

AtualizadoSource: Space-Track

Época: Sep 11, 2026, 11:56 UTC

1 29065U 78100AX  26254.49785946  .00000093  00000-0  10508-2 0  9997
2 29065  82.5387 317.4949 0023008  83.2943 339.0909 11.98939381589519

Acompanhe SL-14 DEB em tempo real com AllMySat

Download on the App Store